Flag for Russia Weather past 2 weeks in Novorossiysk, Russia

Now
63 °F

Passing clouds.


Feels Like: 63 °F
Forecast: 37 / 72 °F
Wind: 3 mph from Southwest

Location: Anapa / Vitiazevo

Current Time: Apr 27, 2015 at 9:21:56 AM

Latest Report: Apr 27, 2015 at 9:00 AM


Visibility: N/A

Pressure: 30.01 "Hg

Humidity: 59%

Dew point: 48 °F

Location of NovorossiyskLocation

Historic Weather in Novorossiysk — Graph

°F

Novorossiysk temperature yesterday

Maximum temperature yesterday: 68 °F (at 1:30 PM)
Minimum temperature yesterday: 32 °F (at 4:00 AM)
Average temperature yesterday: 55 °F

Past Weeks' High & Low Weather Summary

 TemperatureHumidityPressure
High68 °F (Apr 13, 2:30 PM)100% (Apr 13, 12:00 AM)30.21 "Hg (Apr 13, 12:00 AM)
Low28 °F (Apr 22, 12:00 AM)17% (Apr 26, 9:30 AM)29.68 "Hg (Apr 19, 6:30 AM)
Average50 °F70%30.01 "Hg
* Reported Apr 12 8:00 AM — Apr 27 8:00 AM, Novorossiysk, Weather by CustomWeather, © 2015

Note: Actual official high and low records may vary slightly from our data, if they occured in-between our weather recording intervals... More about our weather records

Advertising

Novorossiysk weather history for previous 24 hours

 ConditionsComfort  
Time TempWeatherWind HumidityBarometerVisibility
8:00 AM
Mon, Apr 27
57 °FSunny.8 mph63%30.01 "Hg10 mi
7:30 AM55 °FSunny.8 mph63%29.98 "Hg10 mi
7:00 AM54 °FPassing clouds.3 mph67%29.98 "HgN/A
6:30 AM52 °FPassing clouds.3 mph67%29.98 "HgN/A
6:00 AM48 °FClear.3 mph71%29.98 "Hg10 mi
5:00 AM52 °FClear.6 mph62%29.98 "Hg10 mi
4:00 AM48 °FClear.3 mph66%29.98 "Hg10 mi
3:00 AM48 °FPassing clouds.3 mph66%29.98 "HgN/A
2:00 AM48 °FClear.8 mph66%29.98 "Hg10 mi
1:00 AM45 °FClear.8 mph81%30.01 "Hg10 mi
12:00 AM45 °FClear.8 mph81%30.01 "Hg10 mi
11:00 PM
Sun, Apr 26
50 °FClear.10 mph71%30.01 "Hg10 mi
10:00 PM50 °FClear.6 mph67%30.01 "Hg10 mi
9:00 PM50 °FClear.3 mph67%30.01 "Hg10 mi
8:30 PM50 °FClear.6 mph67%30.01 "Hg10 mi
8:00 PM54 °FSunny.8 mph54%30.01 "Hg10 mi
7:30 PM55 °FSunny.8 mph55%30.01 "Hg10 mi
7:00 PM57 °FSunny.8 mph51%30.01 "Hg10 mi
6:30 PM59 °FSunny.6 mph48%30.01 "Hg10 mi
6:00 PM61 °FSunny.10 mph45%30.01 "Hg10 mi
5:30 PM64 °FSunny.10 mph40%30.01 "Hg10 mi
5:00 PM66 °FSunny.8 mph37%30.01 "Hg10 mi
4:30 PM66 °FSunny.10 mph37%30.01 "Hg10 mi
4:00 PM66 °FSunny.10 mph40%30.04 "Hg10 mi
3:30 PM66 °FSunny.10 mph43%30.04 "Hg10 mi
3:00 PM68 °FPassing clouds.8 mph35%30.04 "HgN/A
2:30 PM68 °FPassing clouds.6 mph30%30.04 "HgN/A
2:00 PM68 °FPassing clouds.8 mph33%30.07 "HgN/A
1:30 PM68 °FPassing clouds.6 mph35%30.07 "HgN/A
1:00 PM66 °FPassing clouds.6 mph35%30.07 "HgN/A
12:30 PM66 °FPassing clouds.6 mph30%30.07 "HgN/A
12:00 PM64 °FPassing clouds.8 mph32%30.09 "HgN/A
11:30 AM64 °FPassing clouds.8 mph32%30.09 "HgN/A
11:00 AM64 °FSunny.3 mph26%30.09 "Hg10 mi
10:30 AM63 °FSunny.3 mph20%30.09 "Hg10 mi
10:00 AM63 °FPassing clouds.3 mph20%30.12 "HgN/A
9:30 AM61 °FSunny.3 mph17%30.12 "Hg10 mi
9:00 AM59 °FPassing clouds.3 mph21%30.12 "HgN/A
Weather by CustomWeather, © 2015

See weather overviewHow to use our weather pages